SCP
1 1 1 1 1 1 1 1 1 1 1 1 1 1 1 1 1 1 2 1 1 1 1 1 1 1 1 1 1 1 1 1 1 1 1 1 1 1 1 0 0 0 0
1 1 1 1 1 1 1 1 1 1 1 1 1 1 1 1 1 1 1 1 1 1 1 1 1 1 1 1 1 1 1 1 1 1 1 1 1 1 1 0 0 0 0
1 1 1 1 1 2 2 2 1 1 1 1 1 1 1 1 1 1 1 1 1 1 1 1 1 1 1 1 1 1 1 1 1 1 1 1 1 1 1 0 0 0 0
1 1 1 1 1 1 1 1 1 1 1 1 1 1 1 1 1 1 1 1 1 1 1 1 1 1 1 1 1 1 1 1 1 1 1 1 1 1 1 1 1 0 0
1 1 1 1 1 1 1 1 1 1 1 1 1 1 1 1 0 1 1 1 1 1 1 1 1 1 1 1 1 1 1 1 1 1 1 1 1 1 1 1 1 1 1
1 1 1 1 1 1 1 1 1 1 1 0 0 0 0 0 0 0 0 1 1 1 1 1 1 1 1 1 1 1 1 1 1 1 1 1 1 1 1 1 1 1 1
0 0 0 0 1 1 1 1 1 1 0 0 0 0 0 0 0 0 0 0 0 0 0 1 1 1 1 1 1 1 2 2 1 1 1 1 1 1 1 1 1 1 1
0 0 0 0 0 0 1 0 0 0 0 0 0 0 0 0 0 0 0 0 0 0 0 0 1 1 1 1 1 1 2 2 1 1 1 1 1 1 1 1 1 1 1
0 0 0 0 0 0 0 0 0 0 0 0 0 0 0 0 0 0 0 0 0 0 0 0 0 0 1 1 1 1 1 1 1 1 1 1 1 1 1 1 1 1 1
0 0 0 0 0 0 1 1 0 0 0 0 0 0 0 0 0 0 0 0 0 0 0 0 1 1 1 1 1 1 1 1 1 1 1 1 1 1 1 1 1 1 1
0 0 1 1 1 1 1 1 1 1 0 0 0 0 0 0 0 0 0 0 0 0 1 1 1 1 1 1 1 1 1 1 0 0 1 1 1 1 1 1 1 1 1
1 1 1 1 1 1 1 1 1 1 1 0 0 0 0 0 0 0 0 0 0 0 1 1 1 1 1 1 1 1 1 1 1 0 0 1 1 1 1 1 1 1 1
1 1 2 2 2 2 2 2 2 1 1 1 0 0 0 0 0 0 0 0 0 0 0 1 1 0 0 1 1 1 1 1 0 0 0 0 0 1 1 1 1 1 1
1 1 3 3 4 3 3 2 2 1 1 1 1 1 0 0 0 0 0 0 0 0 0 0 0 0 0 0 0 0 0 0 0 0 0 0 0 0 0 1 1 1 1
1 2 3 4 5 4 3 3 2 2 1 1 1 1 1 0 0 0 0 0 0 0 0 0 0 0 0 0 0 0 0 0 0 0 0 0 0 0 0 0 0 0 0
2 2 3 4 5 5 4 3 2 2 1 1 1 1 1 1 0 0 0 0 0 0 0 0 0 0 0 0 0 0 0 0 0 0 0 0 0 0 0 0 0 0 0
3 3 3 4 5 5 5 4 2 2 1 1 1 1 1 1 0 0 0 0 0 0 0 0 0 0 1 1 1 1 1 0 0 0 0 0 0 0 0 0 0 0 0
4 4 4 4 5 5 5 4 3 1 1 1 1 1 1 1 1 1 0 0 0 0 0 0 0 0 1 1 1 1 0 0 0 0 0 0 0 0 0 0 0 0 0
4 4 4 4 5 5 4 4 2 2 1 1 1 1 1 1 1 1 1 1 1 1 1 1 1 1 1 1 1 1 1 0 0 0 0 0 0 0 0 0 0 0 0
4 5 5 5 5 5 4 3 2 2 2 2 2 2 2 2 2 1 1 1 1 1 1 1 1 1 1 1 1 1 1 0 0 0 0 0 0 0 0 0 0 0 0
5 6 6 6 5 4 3 2 2 2 2 2 2 2 2 2 2 1 1 1 1 2 2 1 1 1 1 2 2 1 1 1 1 1 0 0 0 0 0 0 0 0 0
5 6 7 7 5 4 2 2 2 2 3 3 3 3 3 2 1 1 1 1 1 1 1 1 1 1 1 2 2 2 1 1 1 1 1 1 0 0 0 0 0 0 0
5 6 6 6 5 3 1 1 1 2 3 3 3 3 3 2 2 2 2 1 1 1 1 1 1 1 1 1 2 1 1 1 1 1 1 1 0 0 0 0 0 0 0
6 5 5 5 4 3 1 0 0 1 2 3 3 3 3 2 2 2 2 2 2 1 1 0 0 0 0 0 1 1 1 1 1 1 1 0 0 0 0 0 0 0 0
5 5 5 4 4 3 1 0 0 1 1 2 2 2 2 2 2 1 1 2 2 2 1 0 0 0 0 0 0 0 0 0 0 0 0 0 0 0 0 0 0 0 0
5 4 4 4 4 3 2 0 0 1 1 2 1 1 1 1 1 1 1 1 1 1 1 1 0 0 0 0 0 0 0 0 0 0 0 0 0 0 0 0 0 0 0
Wind_Speed
2 3 2 1 1 1 1 0 1 0 0 1 1 1 2 2 1 1 4 9 9 8 8 8 8 9 9 9 9 8 8 7 6 6 6 6 6 6 6 6 6 6 6
3 2 2 1 1 1 1 1 1 1 0 0 1 1 1 2 1 1 2 5 8 8 7 8 8 9 9 9 9 9 8 8 7 7 7 7 7 7 7 7 7 7 6
2 1 2 2 1 2 2 1 0 0 1 1 0 0 1 1 1 1 1 2 4 6 8 8 8 9 9 9 10 10 9 8 8 9 9 9 8 8 7 7 7 7 7
2 1 1 2 1 1 1 1 1 0 1 0 0 1 1 1 2 3 2 2 2 3 6 9 9 9 10 10 10 10 9 9 9 9 10 9 9 9 8 8 8 8 8
2 2 3 2 1 1 1 1 2 1 1 1 1 2 2 2 2 2 1 2 2 3 3 7 9 9 10 11 11 11 11 11 10 10 10 10 10 10 10 9 9 9 9
2 1 3 2 1 2 2 2 1 1 0 1 3 0 1 1 1 1 1 1 2 2 3 4 4 6 9 10 10 11 12 12 12 12 12 12 12 12 11 11 11 10 11
3 1 3 2 2 3 2 2 1 1 0 0 2 1 2 3 2 2 0 0 0 0 2 3 3 2 3 8 9 10 11 12 13 13 13 13 13 12 12 13 12 12 12
4 4 2 2 3 2 2 2 1 2 1 1 1 2 1 1 0 2 2 2 1 0 1 2 3 3 2 3 5 9 9 10 11 12 13 12 13 12 13 13 13 13 13
3 2 3 2 2 3 2 1 1 2 2 1 1 2 2 2 0 2 1 2 1 0 1 1 2 3 3 3 3 5 7 7 8 10 11 13 13 13 14 14 14 14 14
4 4 3 2 1 1 2 2 2 1 1 1 1 1 1 1 1 0 0 1 2 2 1 1 1 2 2 3 4 5 5 4 5 7 8 10 11 12 13 14 15 15 14
4 4 4 3 2 1 2 2 2 2 2 2 2 0 1 1 2 1 0 1 1 2 2 1 1 0 1 3 3 5 6 4 3 3 4 5 7 9 11 14 15 15 15
4 5 5 3 2 2 3 2 1 1 1 2 3 3 1 1 1 1 1 1 1 1 2 2 1 0 1 2 4 7 6 5 4 2 3 4 6 7 9 11 13 15 16
5 6 6 5 3 3 3 2 2 1 1 0 1 2 2 2 2 2 2 3 3 2 1 2 2 2 1 3 4 5 6 6 5 3 3 3 5 6 7 9 10 12 13
6 8 6 6 5 4 5 3 3 3 2 1 2 1 2 2 2 2 2 2 3 3 1 0 1 2 2 3 4 3 3 7 6 5 5 5 5 5 6 6 7 8 9
5 8 7 6 5 5 3 4 3 3 3 3 2 3 2 2 1 1 1 1 2 3 3 1 1 1 2 2 6 2 2 6 8 8 9 8 8 7 7 7 7 7 8
4 7 7 6 6 5 5 4 3 3 3 3 2 1 1 2 1 1 1 1 1 2 3 2 2 1 1 1 2 2 3 5 10 12 12 12 11 10 9 9 9 9 9
5 6 6 6 6 6 6 5 5 4 5 4 4 4 4 3 2 2 2 2 2 2 3 3 3 2 1 2 3 3 4 5 6 13 15 14 13 12 12 11 11 11 11
6 6 6 6 7 7 7 6 6 5 5 5 5 4 4 4 4 3 2 3 2 2 3 4 4 4 4 4 4 5 5 6 5 7 11 14 15 14 13 13 13 13 12
7 7 7 7 7 6 7 7 6 5 5 5 5 5 5 4 4 4 3 4 3 4 2 3 4 4 3 4 4 4 6 5 7 8 10 13 15 15 14 15 15 15 14
8 7 7 7 7 6 6 7 7 6 6 5 5 5 5 5 6 5 5 5 4 4 4 4 5 4 4 4 3 3 4 4 4 6 5 5 11 16 17 17 17 16 16
10 8 8 8 7 7 8 8 7 8 7 6 6 6 7 8 8 6 6 4 4 4 4 4 4 4 4 2 2 2 3 3 4 4 4 4 4 5 8 13 17 17 17
8 8 8 8 9 9 10 11 8 6 5 6 7 6 7 8 10 12 12 10 8 6 6 5 5 5 5 4 3 3 3 4 4 3 3 4 4 4 4 5 11 16 18
8 7 8 7 7 7 8 9 10 6 5 5 6 6 8 9 9 9 12 15 14 15 13 8 9 9 7 6 5 5 4 5 5 4 4 6 5 6 5 8 12 12 15
7 7 6 7 6 8 10 10 10 7 7 7 7 7 7 8 9 7 7 9 10 11 14 13 12 12 11 8 7 7 7 7 7 6 7 8 7 7 8 6 10 12 13
5 6 6 6 7 7 10 11 10 6 6 8 9 9 9 9 11 13 10 9 9 9 13 16 17 17 18 16 10 5 6 6 8 7 6 7 7 6 6 6 7 13 15
5 5 6 7 7 7 9 12 12 7 7 7 7 8 13 13 13 13 10 10 11 10 10 10 10 13 14 15 17 12 10 9 9 8 7 6 6 5 6 5 5 5 7
Wind_Direction
100 105 109 122 126 124 120 48 329 289 284 335 316 349 6 356 26 101 139 155 159 165 173 181 186 187 185 182 180 182 182 180 174 172 174 172 173 178 179 179 172 168 166
101 118 145 143 148 144 135 195 231 251 27 10 316 7 352 340 10 23 142 155 166 178 185 190 195 192 191 191 188 188 189 190 184 183 189 187 185 186 189 190 187 181 178
124 153 158 143 120 144 142 150 61 253 203 209 200 275 274 307 333 319 249 164 167 186 198 198 197 196 197 197 195 194 194 193 193 194 198 200 195 192 194 197 197 192 188
141 192 112 88 26 126 132 137 123 28 9 14 317 280 223 210 239 242 229 168 157 181 198 204 203 200 201 202 201 200 199 198 200 204 205 206 204 199 198 200 202 198 195
143 107 87 78 285 95 77 56 74 36 11 6 272 218 237 201 213 236 208 182 162 167 173 190 202 200 203 206 208 209 205 204 209 215 216 217 216 211 206 205 206 203 200
122 106 121 96 22 75 70 68 74 60 302 323 303 241 232 205 184 140 266 184 163 175 161 157 186 204 207 210 212 212 212 209 211 218 222 224 222 219 214 211 210 209 206
127 77 106 124 92 86 74 61 20 261 212 16 303 272 210 184 151 141 200 61 146 160 137 152 169 179 187 208 213 214 216 216 214 217 221 224 225 222 219 217 212 212 211
155 156 131 146 114 114 97 86 41 337 322 95 325 310 238 130 194 146 155 172 120 29 238 183 165 172 189 170 198 211 215 218 217 216 220 223 227 227 224 222 218 216 214
143 100 124 119 148 154 130 110 23 28 358 354 47 0 360 41 337 133 147 110 114 163 287 241 183 171 188 161 161 196 209 215 224 223 221 224 227 229 227 225 223 220 218
153 154 150 137 113 108 131 179 108 321 293 304 139 110 77 70 346 17 240 142 188 184 216 315 300 192 168 139 140 152 174 189 215 229 232 229 226 227 229 229 229 225 222
170 169 162 160 164 127 117 95 97 3 342 351 351 68 115 190 236 244 253 249 241 185 170 182 287 298 128 137 138 139 154 169 188 221 239 242 238 236 236 234 235 234 230
180 176 170 168 181 161 144 139 145 152 44 15 349 347 349 344 327 336 321 287 269 213 166 144 203 217 136 128 125 139 157 168 180 209 244 254 254 250 247 243 242 242 239
180 177 176 169 183 164 166 164 165 167 158 107 323 324 347 356 1 358 344 334 338 295 202 187 188 169 174 121 127 147 171 174 182 200 231 251 261 261 258 253 249 250 247
176 161 164 169 185 183 184 174 190 186 178 205 253 325 324 322 338 346 342 341 323 312 298 207 134 141 109 112 141 186 187 193 198 212 226 236 246 253 258 257 254 253 252
152 154 166 174 182 187 188 174 212 206 168 196 219 212 234 270 266 304 324 329 322 323 325 326 2 129 144 144 161 214 234 210 211 222 230 232 235 240 243 246 250 250 251
157 154 169 175 180 180 188 197 217 200 196 211 227 238 245 287 302 270 265 272 275 281 294 318 304 295 74 310 184 256 274 250 228 230 231 228 229 233 236 239 242 244 246
162 167 177 183 186 185 185 195 232 205 199 213 230 219 210 241 281 299 279 259 252 257 272 289 302 315 275 242 248 253 266 253 240 236 229 226 226 228 232 235 238 240 242
178 181 186 192 198 194 189 194 218 222 205 209 222 230 228 228 216 242 273 282 274 263 255 273 283 281 269 247 233 232 257 268 268 264 228 222 224 227 230 233 236 238 238
190 191 192 198 208 204 193 198 208 225 225 218 219 224 229 235 235 232 238 258 271 274 256 261 270 264 261 256 246 246 257 260 269 273 238 223 225 229 231 233 234 234 235
193 199 196 200 205 211 205 203 206 216 226 230 229 228 230 232 232 231 240 239 247 261 268 264 262 262 255 248 231 239 262 254 261 279 284 250 226 227 231 233 234 234 233
200 200 201 204 205 210 214 208 209 215 213 225 232 232 234 234 234 231 244 241 249 250 260 264 267 270 264 265 258 254 266 268 261 259 261 262 244 229 228 236 240 239 235
201 195 201 208 211 220 214 205 203 226 220 222 230 235 243 237 230 229 235 239 239 245 254 262 271 269 273 275 274 271 272 277 277 271 278 277 275 265 253 239 235 233 233
198 203 203 209 217 217 207 199 205 219 238 245 244 240 249 253 235 224 226 232 239 241 237 242 256 261 268 272 279 278 269 267 268 276 294 278 268 267 261 267 264 246 231
198 206 210 214 219 218 201 194 199 216 236 245 249 250 248 255 261 252 246 239 230 232 230 229 237 245 249 250 250 254 257 265 262 254 241 256 254 251 258 252 256 247 234
195 201 209 214 221 221 203 198 192 217 236 244 246 249 248 249 250 248 249 253 255 251 244 236 224 230 235 241 241 251 256 261 267 263 242 246 250 248 245 244 245 242 234
200 208 216 218 224 226 205 200 197 221 239 247 247 247 249 249 253 249 244 248 252 253 257 261 245 239 241 243 235 230 238 247 257 262 249 247 253 252 259 246 241 244 235